Theta_e
338 340 336 336 335 336 336 336 336 330 324 333 323 330 341 341 342 342 341 340 337 334 322 315 314 320 317 325 332 332 332 331 329 327 331 335 334 332 327 325 326 326 322
335 339 336 336 335 337 339 337 334 324 331 337 328 319 327 336 341 341 340 340 337 329 315 315 320 320 322 328 330 330 329 329 328 330 335 337 335 330 323 322 329 333 333
333 337 336 336 339 341 337 333 329 322 334 340 328 316 313 317 324 335 338 338 331 317 315 316 320 323 325 330 332 333 328 325 325 330 329 324 319 316 314 316 318 322 332
332 337 337 336 338 339 334 328 325 327 334 334 320 316 312 311 312 320 329 328 316 315 316 317 320 324 326 329 330 331 329 325 319 317 315 313 313 312 310 310 309 309 313
332 336 336 336 337 337 327 321 323 332 339 327 320 314 313 312 312 313 315 315 315 316 316 316 318 322 325 328 329 328 326 326 320 316 316 315 315 313 312 311 310 309 308
333 335 337 338 338 333 322 320 325 334 336 327 321 315 314 314 315 316 316 315 316 317 317 317 317 318 322 325 325 325 322 323 321 318 318 319 319 318 316 314 312 310 309
333 336 338 338 337 331 322 320 327 331 335 331 321 317 315 315 316 316 316 316 317 318 318 318 318 318 319 320 321 322 321 322 322 322 319 319 319 319 320 319 317 314 311
336 338 339 339 336 329 324 321 327 333 336 336 325 320 316 315 316 316 317 317 318 318 318 318 319 319 319 319 320 322 323 321 321 322 320 319 319 318 319 319 319 319 316
339 339 339 340 335 329 320 321 326 335 338 339 334 323 318 316 316 316 317 317 318 318 318 318 318 319 319 319 320 321 322 321 321 321 322 321 319 318 318 318 318 318 319
340 338 341 340 335 330 320 320 325 333 337 340 337 328 320 318 317 317 318 318 318 318 318 318 319 319 319 319 319 319 321 322 321 321 321 321 320 318 318 319 318 318 318
343 340 340 338 337 331 322 319 323 330 330 334 338 327 320 320 318 318 317 317 318 318 318 318 318 318 318 318 318 319 319 321 321 320 321 321 320 320 320 321 322 321 319
341 341 340 338 337 334 326 317 322 324 327 329 335 327 321 320 319 319 319 318 318 317 317 318 318 318 318 319 320 319 319 320 319 319 321 322 322 323 324 324 325 325 323
338 338 339 337 337 336 331 325 317 325 326 326 329 326 321 322 321 321 320 319 319 319 318 316 316 317 319 321 321 321 320 320 321 321 322 323 324 325 326 327 327 326 326
335 339 337 338 337 336 334 332 322 317 318 322 320 321 325 326 325 323 320 317 317 317 319 318 320 320 322 323 326 327 328 327 327 327 326 326 327 327 327 327 327 327 327
328 330 338 337 338 336 335 333 334 331 325 319 318 319 325 326 325 322 321 320 321 319 319 320 320 321 322 326 328 330 331 330 329 329 328 328 328 329 329 329 328 328 328
329 334 332 337 338 337 333 332 335 336 336 335 332 327 324 325 326 325 324 322 322 322 322 321 321 322 327 329 330 331 331 330 330 331 331 331 331 331 331 331 331 330 328
338 335 330 329 336 339 338 337 336 337 337 336 336 336 334 329 328 328 327 325 324 325 326 325 324 326 328 330 330 331 331 331 331 331 331 331 331 332 332 332 329 330 328
338 337 335 336 333 333 337 338 337 337 337 336 336 335 335 336 334 330 328 326 325 329 331 331 331 331 331 332 331 331 332 331 331 331 330 330 330 331 331 328 327 327 326
336 337 336 335 328 327 328 335 337 335 337 335 336 336 335 336 335 332 329 327 326 329 332 333 334 334 333 332 332 331 331 331 331 331 331 331 331 332 332 330 327 326 327
337 336 337 336 334 331 335 336 337 336 335 336 336 336 335 334 334 336 333 332 331 333 333 333 333 332 332 332 331 330 330 329 331 328 328 328 331 332 331 329 328 327 328
336 336 336 338 339 338 338 337 336 337 336 335 335 335 334 335 334 336 334 334 334 334 334 333 332 333 331 331 330 329 328 328 327 325 324 325 325 327 328 328 326 327 324
330 332 333 335 337 338 338 337 337 337 336 335 334 334 335 335 336 335 335 335 335 334 334 333 333 332 331 331 330 329 327 326 324 323 324 325 325 326 326 324 326 326 322
325 326 331 330 331 333 335 336 336 335 335 335 334 334 334 336 336 336 335 335 334 335 335 333 332 332 330 330 330 329 327 326 326 324 326 326 325 325 325 326 323 322 320
324 325 326 328 331 332 332 332 333 334 334 334 333 333 334 335 334 335 335 334 333 329 332 332 332 331 331 331 325 325 325 326 327 323 322 322 323 324 322 323 322 321 322
323 323 325 326 328 330 331 332 331 331 331 331 330 330 329 328 328 330 329 328 328 326 326 326 323 320 318 315 314 313 313 315 318 323 322 317 319 321 322 323 321 321 321
322 322 321 323 325 329 329 330 330 329 329 328 327 327 326 324 324 323 322 322 319 317 315 314 313 313 312 312 312 312 312 313 313 314 319 319 317 317 318 319 320 321 320
Wind_Speed
27 26 23 22 19 16 12 12 12 11 17 19 19 20 22 23 23 24 21 18 17 15 13 16 19 20 22 23 21 21 20 20 21 20 20 20 17 18 17 18 18 18 17
32 27 24 21 19 17 16 13 12 14 20 19 16 17 19 18 20 21 19 16 13 12 17 20 21 22 23 21 19 17 18 19 20 19 18 17 13 13 15 15 16 16 15
31 28 25 23 21 20 15 13 15 19 22 18 14 14 16 17 18 17 17 15 12 15 19 21 22 22 22 20 19 16 17 17 16 14 13 13 12 12 12 13 11 12 14
30 28 26 23 22 19 15 16 18 23 21 17 14 14 15 16 17 16 15 12 16 19 21 22 22 21 19 17 18 15 14 15 15 13 13 13 12 13 12 12 12 10 8
31 28 25 23 21 18 17 20 23 24 21 16 15 16 17 18 19 17 18 22 22 22 21 21 21 20 18 16 15 13 14 13 13 12 13 13 13 14 14 13 12 11 9
30 26 24 22 19 18 18 22 25 25 20 17 17 17 19 21 22 22 22 22 22 21 21 21 20 18 16 13 11 10 12 11 11 11 12 13 13 13 13 13 13 12 11
28 25 23 20 18 17 19 22 26 25 21 18 18 18 19 20 21 22 21 21 20 19 19 18 17 16 14 11 10 7 8 8 9 9 11 11 12 12 12 12 12 12 11
26 24 23 20 17 18 18 22 26 25 22 19 18 18 19 19 20 20 19 18 17 16 16 15 14 12 11 9 7 6 4 6 7 7 8 10 10 10 11 11 11 11 11
23 22 21 19 17 17 17 21 24 24 23 19 15 16 17 18 18 17 17 16 15 14 13 12 10 9 8 7 5 4 3 4 5 5 6 8 10 10 10 10 10 10 10
17 19 22 18 17 16 17 19 22 23 23 22 16 15 17 16 16 15 14 13 12 11 9 8 7 6 5 5 4 3 2 2 4 4 6 8 9 10 10 10 9 10 10
18 17 19 17 16 14 14 18 20 21 20 20 18 16 14 14 13 13 12 11 10 9 7 6 5 4 3 3 2 2 2 2 4 5 6 7 8 9 9 10 10 10 10
18 18 18 18 16 15 13 16 18 19 20 19 17 16 13 13 12 10 9 8 8 7 6 6 5 4 3 2 2 2 3 3 5 5 6 6 7 9 9 9 9 10 10
15 16 17 17 14 15 14 14 17 17 18 19 17 15 13 12 11 10 7 6 7 6 6 6 6 5 3 2 3 3 4 4 5 6 6 6 7 8 10 9 9 9 10
21 16 19 18 15 13 13 12 14 16 17 17 15 14 14 13 10 7 7 6 6 7 6 6 5 5 4 3 2 3 5 5 5 6 6 7 8 8 10 10 11 11 11
18 28 23 20 15 15 12 12 13 13 12 13 15 14 12 10 8 6 6 7 6 6 6 5 5 5 4 4 5 5 5 6 7 8 8 9 10 10 11 12 13 14 14
29 35 33 18 18 15 15 16 15 13 10 10 11 12 12 10 8 8 10 9 8 6 6 6 5 5 5 6 7 8 9 9 9 9 10 11 12 13 14 13 14 13 14
36 37 38 32 23 19 19 17 17 14 14 14 10 9 11 11 11 13 12 10 8 7 7 7 7 8 8 10 11 11 10 9 10 12 14 15 16 17 15 15 16 15 15
29 28 28 30 31 20 23 22 18 19 17 16 14 13 12 11 13 15 13 11 10 9 8 8 8 10 10 10 10 10 12 12 13 15 16 17 20 18 18 17 16 17 16
29 29 30 28 28 33 27 28 22 21 22 19 20 18 17 14 13 13 14 13 13 12 11 10 9 10 11 12 14 15 16 19 18 20 20 20 21 22 21 17 16 17 14
28 30 30 27 27 24 27 25 22 22 25 23 21 19 18 13 13 9 11 12 12 11 8 10 12 14 16 18 19 20 21 22 24 21 20 21 23 24 20 18 16 18 17
23 28 27 27 27 27 26 27 27 30 29 26 22 21 17 18 15 14 11 10 10 10 13 14 16 18 18 18 21 22 24 25 24 24 21 18 19 19 19 22 19 16 15
20 23 24 25 26 26 26 28 30 28 25 25 25 21 25 21 19 16 15 15 15 14 15 16 19 21 22 20 22 24 26 29 24 16 15 15 14 14 15 19 18 16 15
20 18 23 22 24 26 27 24 27 24 24 26 27 28 24 21 20 19 17 17 17 19 20 20 22 22 24 25 24 22 12 9 15 13 11 14 15 15 15 16 18 18 19
24 21 19 21 23 24 26 26 27 29 28 28 25 25 25 25 24 23 23 22 22 22 22 22 24 26 28 28 27 26 26 28 25 14 13 10 8 14 15 15 19 21 21
27 25 24 22 22 24 25 25 25 29 26 22 23 24 24 23 21 20 21 22 23 23 23 24 25 26 26 26 24 24 24 24 24 25 26 21 16 17 20 19 20 22 20
29 28 25 25 26 26 27 27 27 26 26 24 23 23 22 20 22 25 25 24 23 22 23 24 25 26 26 25 24 23 22 22 22 19 17 18 19 19 20 20 22 23 20
Wind_Direction
174 164 163 159 153 148 143 138 134 119 122 114 118 127 120 118 123 123 122 122 122 117 104 103 108 107 108 108 102 96 92 85 92 89 86 78 71 73 69 67 66 65 64
161 164 163 158 151 148 140 139 137 128 126 123 121 131 138 137 124 122 121 122 127 105 105 109 111 112 113 108 101 95 93 88 91 90 88 84 75 62 63 64 59 61 56
162 162 161 157 152 152 149 144 138 134 130 133 131 127 137 145 145 141 134 135 121 112 113 112 113 115 113 108 99 96 92 89 85 86 76 69 63 55 52 59 69 62 67
163 162 162 159 155 158 154 145 141 138 133 138 128 122 128 141 150 156 143 142 123 119 116 114 114 118 112 104 103 102 92 84 77 74 71 68 62 59 52 48 49 52 57
165 162 162 160 157 158 149 141 142 139 139 138 126 118 118 125 135 138 128 122 121 119 117 116 118 120 115 106 104 103 96 87 74 69 67 61 57 57 52 50 49 49 51
164 162 160 158 159 157 147 144 145 143 146 137 126 118 116 118 121 118 119 120 121 119 118 119 119 121 118 109 99 98 94 88 78 70 63 57 51 50 48 46 46 44 43
163 161 160 161 163 159 150 150 149 147 148 140 131 123 121 123 124 124 123 122 121 120 121 121 120 118 118 115 109 97 81 82 75 66 55 47 43 40 39 39 39 40 38
162 162 161 166 166 160 155 155 155 151 147 144 139 132 129 129 129 129 128 127 126 124 123 123 124 122 120 118 118 110 79 72 71 63 45 39 33 28 26 27 29 30 31
165 165 165 170 168 163 159 159 160 157 148 150 153 144 142 139 136 135 134 134 133 132 131 131 129 128 125 121 120 118 91 15 50 44 35 24 20 16 13 14 16 19 20
168 177 173 175 174 167 162 164 165 162 158 154 167 151 148 144 142 141 141 141 142 143 144 142 141 139 137 139 146 161 150 319 347 11 16 9 8 4 1 3 5 7 10
178 187 188 184 177 172 165 168 169 170 170 167 166 152 150 152 152 151 152 154 156 157 159 160 161 167 166 164 178 213 234 293 322 341 357 355 353 356 356 355 357 360 360
183 190 195 191 184 182 171 172 175 179 177 177 171 164 163 159 161 164 164 167 170 176 184 187 194 205 209 217 243 268 276 287 306 321 339 344 342 345 351 349 351 353 351
187 201 198 200 194 192 181 174 177 179 180 183 186 184 180 171 172 174 184 196 199 202 207 211 218 226 225 242 266 286 295 299 314 319 321 327 333 334 337 341 341 341 342
185 218 209 200 214 206 194 184 181 186 187 187 187 192 192 192 189 195 220 212 212 212 217 217 224 234 241 282 313 332 326 327 321 315 314 318 324 327 326 327 327 327 325
198 197 205 198 209 224 213 193 177 174 182 187 193 201 208 211 212 224 229 225 222 226 225 224 235 253 265 285 302 316 313 315 315 314 316 320 322 324 325 325 324 322 319
187 187 202 208 220 224 220 218 205 196 190 198 198 211 223 227 242 243 241 237 235 235 240 249 258 264 277 288 293 296 300 303 307 312 322 324 322 320 315 319 321 323 320
190 196 210 197 219 220 217 225 223 211 219 221 222 222 225 238 240 242 246 244 245 253 261 266 264 264 265 276 283 287 290 297 302 307 305 299 297 304 306 310 314 308 311
196 196 197 189 194 227 229 224 226 215 217 220 233 234 233 251 254 247 247 246 242 243 244 246 253 264 270 272 275 283 286 290 286 285 285 290 289 286 288 296 299 299 297
208 208 202 204 219 226 223 223 221 216 214 224 230 230 227 247 247 246 245 242 237 239 247 255 264 274 279 279 280 283 280 280 281 282 277 275 278 279 287 283 281 292 285
208 208 212 215 217 214 220 220 218 220 220 223 222 227 227 240 232 247 235 232 235 237 253 255 267 270 274 277 280 281 279 279 280 284 285 283 279 276 276 281 273 270 281
213 212 215 216 215 212 213 212 221 217 218 226 224 232 234 228 228 232 239 248 249 250 253 258 266 267 278 282 284 285 288 285 289 290 291 284 277 272 278 280 279 267 277
214 218 218 216 216 218 217 226 220 217 219 229 230 223 226 224 226 229 240 240 244 246 252 261 265 268 274 273 278 287 295 295 293 291 278 276 275 278 270 274 276 268 289
215 219 222 225 221 222 223 220 222 222 225 224 223 225 227 222 223 228 235 244 250 254 253 258 263 268 273 272 274 275 287 281 301 296 265 260 268 283 272 273 276 280 283
225 221 222 231 234 233 227 224 230 226 221 226 226 229 230 232 234 234 243 248 252 257 259 263 265 268 268 272 277 272 267 266 274 291 277 267 280 260 264 265 271 277 282
226 222 225 226 227 235 239 233 230 245 243 235 231 227 229 238 242 242 248 252 255 263 268 269 271 272 272 273 273 276 275 269 264 260 278 280 277 264 263 268 270 268 274
225 225 227 228 229 228 232 234 240 233 234 244 239 233 229 232 244 245 247 250 257 263 267 272 276 277 276 275 274 271 271 273 274 271 265 265 272 275 276 264 265 260 256